Home > Weather > Bardufoss > Past weeks

Flag for Norway Past Weather in Bardufoss, Norway — Yesterday and Last 2 Weeks

Now
62 °F

Cool.


Feels Like: 62 °F
Forecast: 55 / 67 °F
Wind: 2 mph from West

Location: Bardufoss

Current Time: Jul 28, 2016 at 4:57:57 AM

Latest Report: Jul 28, 2016 at 4:00 AM


Visibility: N/A

Pressure: 29.77 "Hg

Humidity: 92%

Dew Point: 60 °F

Location of BardufossLocation

Past Weather in Bardufoss — Graph

°F

Bardufoss Temperature Yesterday

Maximum temperature yesterday: 70 °F (at 12:00 PM)
Minimum temperature yesterday: 59 °F (at 4:00 AM)
Average temperature yesterday: 63 °F

High & Low Weather Summary for the Past Weeks

 TemperatureHumidityPressure
High83 °F (Jul 22, 2:00 PM)100% (Jul 24, 4:00 AM)30.16 "Hg (Jul 24, 4:00 AM)
Low39 °F (Jul 21, 3:00 AM)35% (Jul 22, 3:00 PM)29.44 "Hg (Jul 17, 2:00 AM)
Average57 °F80%29.91 "Hg
* Reported Jul 13 3:00 AM — Jul 28 3:00 AM, Bardufoss, Weather by CustomWeather, © 2016

Note: Actual official high and low records may vary slightly from our data, if they occured in-between our weather recording intervals... More about our weather records

Advertising

Bardufoss Weather History for the Previous 24 Hours

Scroll right to see more
 ConditionsComfort  
Time TempWeatherWind HumidityBarometerVisibility
3:00 AM
Thu, Jul 28
62 °FCool.2 mph92%29.77 "HgN/A
2:00 AM62 °FCool.2 mph92%29.77 "HgN/A
1:00 AM62 °FCool.3 mph92%29.77 "HgN/A
12:00 AM62 °FCool.2 mph92%29.77 "HgN/A
11:00 PM
Wed, Jul 27
62 °FLow clouds.3 mph92%29.77 "Hg17 mi
10:00 PM62 °FSprinkles. Low clouds.2 mph92%29.77 "Hg16 mi
9:00 PM62 °FSprinkles. Low clouds.1 mph92%29.77 "Hg16 mi
8:00 PM62 °FSprinkles. Low clouds.2 mph92%29.77 "Hg16 mi
7:00 PM62 °FSprinkles. Low clouds.3 mph92%29.77 "Hg19 mi
6:00 PM62 °FLow clouds.5 mph92%29.77 "Hg28 mi
5:00 PM62 °FLow clouds.6 mph92%29.77 "Hg28 mi
4:00 PM62 °FThunderstorms. Low clouds.2 mph92%29.77 "Hg25 mi
3:00 PM62 °FRain. Overcast.6 mph91%29.77 "Hg12 mi
2:00 PM67 °FOvercast.8 mph78%29.75 "Hg43 mi
1:00 PM68 °FOvercast.7 mph79%29.75 "Hg47 mi
12:00 PM70 °FOvercast.2 mph72%29.75 "Hg47 mi
11:00 AM69 °FOvercast.1 mph75%29.75 "Hg47 mi
10:00 AM66 °FOvercast.1 mph81%29.76 "Hg47 mi
9:00 AM68 °FOvercast.1 mph75%29.77 "Hg47 mi
8:00 AM66 °FFog.No wind83%29.77 "Hg47 mi
7:00 AM63 °FFog.No wind97%29.77 "Hg47 mi
6:00 AM59 °FFog.1 mph99%29.78 "Hg47 mi
5:00 AM59 °FCool.1 mph99%29.79 "HgN/A
4:00 AM59 °FCool.1 mph100%29.80 "HgN/A
Weather by CustomWeather, © 2016

See weather overviewHow to use our weather pages